[[{"header":{"parameterUnit":"m.s-1","parameterCategory":2,"la1":30.2991,"la2":30.254,"lo1":-89.0895,"lo2":-89.0444,"dy":0.0017,"dx":0.0017,"nx":28,"ny":28,"refTime":"2023-04-28T21:00:00:Z","depth":"0","parameterNumber":2,"parameterNumberName":"U-component_of_CURRENTS"},"data":[0,0,0,0,0,0,0,0,0,0,0,0,0,0,0,0,0,0,0,0,0,0,0,0,0,0,0,0,0,0,0,0,0,0,0,0,0,0,0,0,0,0,0,0,0,0,0,0,0,0,0,0,0,0,0,0,0,0,0.3915,0.3916,0,0.4009,0.401,0.4011,0.4055,0.4055,0.4055,0.4055,0.4083,0.4083,0.4084,0,0,0,0,0,0,0,0,0,0,0,0,0,0.3764,0.3767,0.3915,0.3916,0.3917,0.4009,0.401,0.4011,0.4055,0.4055,0.4055,0.4055,0.4082,0.4083,0.4084,0,0,0,0,0,0,0,0,0,0,0,0,0,0.384,0.3768,0.3914,0.3951,0.3955,0.4009,0.401,0.4012,0.4055,0.4055,0.4055,0.4055,0.4082,0.4083,0.4084,0.409,0,0,0.4087,0.4088,0,0,0,0,0,0,0,0,0.3836,0.3845,0.3944,0.3948,0.3953,0.4021,0.3967,0.4035,0.4055,0.4016,0.4055,0.4055,0.4056,0.406,0.4077,0.4091,0.4092,0.4087,0.4088,0.4089,0.4089,0,0,0,0,0,0,0,0.383,0.3842,0.3951,0.3945,0.3951,0.396,0.3971,0.3981,0.4033,0.4019,0.4023,0.4035,0.4058,0.4076,0.4077,0.4093,0.4087,0.4088,0.4089,0.4089,0.4192,0.4194,0,0,0,0,0,0,0.3822,0.3837,0.3948,0.3954,0.3895,0.3963,0.3975,0.3998,0.4034,0.4041,0.4035,0.4037,0.4074,0.4076,0.4078,0.4139,0.4089,0.409,0.409,0.419,0.4193,0.4195,0,0,0,0,0,0,0.3819,0.3831,0.3944,0.3897,0.3912,0.3965,0.3992,0.4,0.4022,0.4047,0.4052,0.4049,0.4074,0.4077,0.4093,0.4138,0.409,0.4091,0.4188,0.4191,0.4194,0.4225,0,0,0,0,0,0,0.3814,0.383,0.3847,0.3897,0.3915,0.3976,0.3992,0.4002,0.403,0.4034,0.406,0.4063,0.4074,0.4091,0.4094,0.4138,0.4092,0.4185,0.4189,0.4193,0.4221,0.4229,0.4235,0,0,0,0,0,0.3808,0.3855,0.3847,0.3861,0.3936,0.3976,0.3986,0.4022,0.4031,0.4041,0.406,0.4062,0.412,0.4092,0.4095,0.4141,0.4183,0.4188,0.4193,0.4218,0.4227,0.4235,0,0,0,0,0,0,0.3792,0.3865,0.3858,0.3919,0.3934,0.3984,0.4008,0.4022,0.4048,0.4047,0.4067,0.4072,0.4118,0.4118,0.4088,0.4187,0.4161,0.4166,0.418,0.4188,0.4195,0.421,0.4093,0,0,0,0,0,0.3793,0.3842,0.3883,0.3916,0.3932,0.3961,0.3983,0.3997,0.4027,0.4039,0.4072,0.4104,0.4141,0.415,0.4185,0.4211,0.4269,0.4252,0.4259,0.4265,0.4283,0.4396,0.4416,0.4211,0.421,0.421,0,0,0.379,0.3833,0.3859,0.3914,0.3932,0.3975,0.3975,0.4004,0.4042,0.4035,0.4106,0.4129,0.4157,0.4209,0.4229,0.4208,0.436,0.4271,0.4275,0.429,0.4404,0.4424,0.4441,0.4214,0.4213,0.4213,0,0,0.3809,0.3846,0.389,0.3907,0.3936,0.3977,0.3983,0.4036,0.4062,0.4107,0.4134,0.4176,0.4227,0.4268,0.4289,0.4351,0.44,0.4367,0.4402,0.4512,0.453,0.4546,0.4667,0.4694,0.436,0.436,0.436,0,0.3793,0.3855,0.3899,0.393,0.3964,0.3981,0.4024,0.4056,0.4109,0.4134,0.4134,0.4249,0.4267,0.434,0.437,0.4369,0.4442,0.4361,0.4521,0.4539,0.4555,0.4675,0.4704,0.4362,0.4362,0.4362,0.4362,0,0.3863,0.3876,0.3899,0.3964,0.4012,0.4036,0.4095,0.4135,0.4176,0.4208,0.4286,0.4321,0.4386,0.4409,0.4406,0.4529,0.455,0.4524,0.4497,0.4578,0.4699,0.4729,0.4365,0.4364,0.4364,0.4363,0,0,0.386,0.3941,0.3925,0.3941,0.4026,0.4065,0.4146,0.4221,0.4255,0.4318,0.4384,0.4464,0.4474,0.4501,0.4513,0.4602,0.4782,0.4611,0.4616,0.4727,0.5053,0.5086,0.5121,0.4785,0.479,0.4794,0.5099,0,0.387,0.3926,0.3998,0.404,0.4066,0.4135,0.4212,0.4276,0.4327,0.4391,0.4439,0.4502,0.4509,0.4531,0.4629,0.4735,0.486,0.4704,0.4962,0.4971,0.4986,0.5156,0.5037,0.53,0.5128,0.5133,0.5137,0,0.3897,0.3918,0.3981,0.405,0.4078,0.4138,0.4253,0.4325,0.4411,0.4444,0.4513,0.4541,0.4672,0.4656,0.4925,0.4826,0.4961,0.505,0.5063,0.5104,0.506,0.519,0.5361,0.5193,0.5183,0.518,0.5176,0,0.3872,0.3901,0.3959,0.3978,0.4083,0.4135,0.4223,0.4323,0.4383,0.4474,0.4508,0.4645,0.4717,0.4905,0.5078,0.5023,0.5382,0.5321,0.5493,0.5497,0.5453,0.5445,0.5488,0.5556,0.5556,0.5555,0.5554,0,0.3893,0.3902,0.392,0.3957,0.3993,0.4097,0.4185,0.4267,0.4376,0.4441,0.4525,0.4601,0.4787,0.4976,0.514,0.5431,0.545,0.5564,0.5599,0.5463,0.5452,0.5346,0.5201,0.5566,0.5564,0.5561,0.5559,0,0.3883,0.3914,0.3912,0.3965,0.3993,0.4012,0.4164,0.4218,0.4325,0.4414,0.4448,0.462,0.4882,0.5086,0.5403,0.5517,0.5643,0.587,0.5705,0.5716,0.5691,0.5551,0.5501,0.536,0.6127,0.613,0.6133,0,0.3915,0.3913,0.3889,0.3882,0.3911,0.3961,0.403,0.4175,0.4234,0.4425,0.4467,0.4717,0.4896,0.5383,0.5653,0.6004,0.5762,0.6054,0.5928,0.5733,0.5605,0.5339,0.52,0.5897,0.5897,0.5898,0.5898,0,0.3925,0.3884,0.3879,0.3843,0.3868,0.3898,0.3995,0.4029,0.42,0.4291,0.446,0.4628,0.5097,0.5407,0.5844,0.6026,0.5748,0.6073,0.5911,0.5487,0.5161,0.5024,0.5649,0.59,0.59,0.59,0.59,0.59,0.3877,0.3835,0.3816,0.3784,0.3787,0.3807,0.3822,0.393,0.4033,0.4146,0.4377,0.4587,0.5077,0.5702,0.5884,0.6034,0.5856,0.5886,0.5763,0.5537,0.5289,0.5939,0.6187,0.6189,0.619,0.6191,0.6192,0,0.3807,0.3815,0.379,0.3716,0.3673,0.3728,0.3778,0.3766,0.3822,0.4028,0.4188,0.461,0.5026,0.5431,0.5826,0.5724,0.5524,0.5515,0.5076,0.4979,0.5638,0.5515,0.5578,0.5578,0.5578,0.5578,0.5578,0.5578,0.3787,0.3762,0.3755,0.3633,0.3575,0.3487,0.3481,0.3493,0.3587,0.3736,0.3918,0.4157,0.4708,0.5176,0.5325,0.5286,0.4876,0.4698,0.4597,0.5016,0.5038,0.5058,0.4911,0.4846,0.4845,0.3819,0.3811,0.3805]},{"header":{"parameterUnit":"m.s-1","parameterCategory":2,"la1":30.2991,"la2":30.254,"lo1":-89.0895,"lo2":-89.0444,"dy":0.0017,"dx":0.0017,"nx":28,"ny":28,"refTime":"2023-04-28T21:00:00:Z","depth":"0","parameterNumber":3,"parameterNumberName":"V-component_of_CURRENTS"},"data":[0,0,0,0,0,0,0,0,0,0,0,0,0,0,0,0,0,0,0,0,0,0,0,0,0,0,0,0,0,0,0,0,0,0,0,0,0,0,0,0,0,0,0,0,0,0,0,0,0,0,0,0,0,0,0,0,0,0,-0.0499,-0.05,0,-0.0647,-0.0648,-0.065,-0.0705,-0.0705,-0.0704,-0.0704,-0.0893,-0.0898,-0.0904,0,0,0,0,0,0,0,0,0,0,0,0,0,-0.0263,-0.0267,-0.0498,-0.05,-0.0502,-0.0646,-0.0648,-0.0651,-0.0705,-0.0705,-0.0704,-0.0703,-0.0891,-0.0898,-0.0904,0,0,0,0,0,0,0,0,0,0,0,0,0,-0.0384,-0.0269,-0.0498,-0.0546,-0.0552,-0.0646,-0.0649,-0.0651,-0.0706,-0.0705,-0.0704,-0.0703,-0.0889,-0.0897,-0.0905,-0.0973,0,0,-0.0931,-0.0934,0,0,0,0,0,0,0,0,-0.0377,-0.0393,-0.0537,-0.0543,-0.055,-0.0656,-0.0635,-0.076,-0.0706,-0.0648,-0.0704,-0.0703,-0.0818,-0.0832,-0.0862,-0.0981,-0.099,-0.0931,-0.0936,-0.094,-0.0942,0,0,0,0,0,0,0,-0.0369,-0.0387,-0.0558,-0.0539,-0.0547,-0.056,-0.0577,-0.0659,-0.0737,-0.0653,-0.0657,-0.0673,-0.0821,-0.0854,-0.0867,-0.0992,-0.0931,-0.0938,-0.0944,-0.0947,-0.1244,-0.1247,0,0,0,0,0,0,-0.0351,-0.038,-0.0553,-0.0562,-0.0459,-0.0565,-0.0584,-0.0623,-0.0735,-0.0751,-0.0673,-0.0675,-0.084,-0.0857,-0.0874,-0.0975,-0.094,-0.0948,-0.0952,-0.1241,-0.1245,-0.1248,0,0,0,0,0,0,-0.0346,-0.0366,-0.0547,-0.0471,-0.0495,-0.057,-0.0614,-0.0627,-0.0662,-0.075,-0.0767,-0.0695,-0.084,-0.0862,-0.096,-0.0982,-0.0951,-0.0959,-0.1238,-0.1243,-0.1247,-0.1169,0,0,0,0,0,0,-0.0339,-0.0364,-0.0387,-0.0472,-0.0499,-0.0605,-0.0615,-0.063,-0.0672,-0.0676,-0.0775,-0.0791,-0.0841,-0.0947,-0.0968,-0.0993,-0.0965,-0.1234,-0.124,-0.1245,-0.1167,-0.117,-0.1172,0,0,0,0,0,-0.033,-0.0371,-0.0388,-0.0408,-0.0529,-0.0605,-0.0621,-0.067,-0.0674,-0.0697,-0.0768,-0.0788,-0.0997,-0.0956,-0.098,-0.1007,-0.1232,-0.1238,-0.1245,-0.1167,-0.1169,-0.1172,0,0,0,0,0,0,-0.0286,-0.0383,-0.0403,-0.0472,-0.053,-0.0614,-0.0642,-0.0672,-0.0746,-0.0746,-0.0822,-0.0846,-0.0941,-0.1,-0.0952,-0.1117,-0.112,-0.1132,-0.1053,-0.1057,-0.1059,-0.0982,-0.0972,0,0,0,0,0,-0.0285,-0.0336,-0.0421,-0.0472,-0.05,-0.0568,-0.0604,-0.0635,-0.0709,-0.0739,-0.0822,-0.091,-0.099,-0.1038,-0.1125,-0.1213,-0.1204,-0.1254,-0.1256,-0.1257,-0.1217,-0.1216,-0.121,-0.127,-0.127,-0.127,0,0,-0.0278,-0.0338,-0.0367,-0.0464,-0.0511,-0.0574,-0.0588,-0.064,-0.0688,-0.0751,-0.0853,-0.0921,-0.1018,-0.1113,-0.1162,-0.116,-0.1245,-0.1265,-0.1264,-0.1223,-0.1221,-0.1214,-0.1208,-0.1274,-0.1273,-0.1273,0,0,-0.0297,-0.0345,-0.0396,-0.0442,-0.0513,-0.0568,-0.0581,-0.0676,-0.0707,-0.0806,-0.086,-0.0925,-0.1086,-0.1134,-0.118,-0.1252,-0.1255,-0.131,-0.1253,-0.1253,-0.1245,-0.1239,-0.1231,-0.1224,-0.1309,-0.1309,-0.1309,0,-0.0285,-0.0367,-0.0418,-0.0472,-0.0509,-0.0566,-0.0617,-0.067,-0.0786,-0.0795,-0.0833,-0.0996,-0.1083,-0.1144,-0.1176,-0.1246,-0.1244,-0.1222,-0.1245,-0.1238,-0.1232,-0.1226,-0.1219,-0.1306,-0.1307,-0.1307,-0.1307,0,-0.0353,-0.04,-0.0428,-0.0524,-0.0568,-0.0617,-0.0687,-0.0728,-0.0776,-0.0818,-0.0882,-0.0982,-0.1056,-0.1119,-0.1172,-0.1189,-0.1202,-0.1237,-0.121,-0.1219,-0.1216,-0.1209,-0.1302,-0.1303,-0.1304,-0.1305,0,0,-0.0376,-0.0462,-0.0469,-0.0488,-0.059,-0.0626,-0.0686,-0.0743,-0.073,-0.0836,-0.0828,-0.0969,-0.0972,-0.1025,-0.1092,-0.1103,-0.1083,-0.1147,-0.1149,-0.1088,-0.1069,-0.1063,-0.1056,-0.1113,-0.1112,-0.1111,-0.1085,0,-0.0415,-0.0489,-0.054,-0.0599,-0.0635,-0.0673,-0.0709,-0.0745,-0.0775,-0.0786,-0.0832,-0.0874,-0.0954,-0.0967,-0.0988,-0.1058,-0.1062,-0.1085,-0.1113,-0.1113,-0.1063,-0.1047,-0.0981,-0.0951,-0.1078,-0.1077,-0.1077,0,-0.049,-0.051,-0.0567,-0.0585,-0.0602,-0.0646,-0.0647,-0.0687,-0.0689,-0.0696,-0.0706,-0.0741,-0.0774,-0.0839,-0.0899,-0.0909,-0.0972,-0.1022,-0.1023,-0.1025,-0.1094,-0.0968,-0.0935,-0.1186,-0.1067,-0.1068,-0.1068,0,-0.0484,-0.0538,-0.0568,-0.0585,-0.0624,-0.0622,-0.0646,-0.0647,-0.0632,-0.0622,-0.0588,-0.0629,-0.0634,-0.0707,-0.0808,-0.0852,-0.0852,-0.0934,-0.098,-0.0981,-0.0931,-0.093,-0.109,-0.0951,-0.0951,-0.0951,-0.0951,0,-0.0537,-0.0556,-0.0548,-0.0565,-0.054,-0.0578,-0.0551,-0.0556,-0.053,-0.0476,-0.0528,-0.0469,-0.0598,-0.0617,-0.0736,-0.0811,-0.0794,-0.0935,-0.0961,-0.0911,-0.0908,-0.1131,-0.1275,-0.095,-0.095,-0.095,-0.095,0,-0.0557,-0.0579,-0.0568,-0.0552,-0.0549,-0.0518,-0.0506,-0.0458,-0.0447,-0.037,-0.0358,-0.0345,-0.0348,-0.0463,-0.0562,-0.0702,-0.0896,-0.0828,-0.0752,-0.0771,-0.1079,-0.122,-0.1335,-0.1413,-0.088,-0.088,-0.0879,0,-0.059,-0.0589,-0.0528,-0.0488,-0.0486,-0.0451,-0.0418,-0.042,-0.0361,-0.0274,-0.0212,-0.018,-0.0099,-0.023,-0.0426,-0.0584,-0.0831,-0.0718,-0.0803,-0.1056,-0.1234,-0.1332,-0.1397,-0.0718,-0.0717,-0.0715,-0.0714,0,-0.0592,-0.0555,-0.0515,-0.0427,-0.0381,-0.0324,-0.0278,-0.0213,-0.0175,-0.0062,0.011,0.0194,0.0097,0.003,-0.0228,-0.0402,-0.0872,-0.0698,-0.0972,-0.1114,-0.1213,-0.1313,-0.079,-0.0702,-0.0703,-0.0704,-0.0704,-0.0705,-0.055,-0.049,-0.0419,-0.0344,-0.0267,-0.0166,-0.0066,0.0031,0.0186,0.0461,0.0437,0.0715,0.0446,0.0159,-0.0183,-0.0754,-0.0768,-0.0944,-0.1088,-0.116,-0.1253,-0.0699,-0.0645,-0.0646,-0.0646,-0.0647,-0.0648,0,-0.0487,-0.0435,-0.0349,-0.0214,-0.0087,-0.0093,0.0064,0.0245,0.0524,0.0803,0.104,0.1167,0.077,0.0258,-0.0503,-0.1024,-0.1231,-0.1337,-0.1485,-0.153,-0.1036,-0.1051,-0.1066,-0.1066,-0.1066,-0.1066,-0.1065,-0.1065,-0.0444,-0.0363,-0.0321,-0.0094,0.0026,0.0261,0.0392,0.0683,0.0951,0.1452,0.1748,0.1897,0.1513,-0.0059,-0.1218,-0.1529,-0.1889,-0.1938,-0.2153,-0.1876,-0.1852,-0.1829,-0.188,-0.2069,-0.2071,-0.2549,-0.2554,-0.2559]}],[{"header":{"parameterUnit":"m.s-1","parameterCategory":2,"la1":30.2991,"la2":30.254,"lo1":-89.0895,"lo2":-89.0444,"dy":0.0017,"dx":0.0017,"nx":28,"ny":28,"refTime":"2023-04-28T21:00:00:Z","depth":"2","parameterNumber":2,"parameterNumberName":"U-component_of_CURRENTS"},"data":[0,0,0,0,0,0,0,0,0,0,0,0,0,0,0,0,0,0,0,0,0,0,0,0,0,0,0,0,0,0,0,0,0,0,0,0,0,0,0,0,0,0,0,0,0,0,0,0,0,0,0,0,0,0,0,0,0,0,0.1956,0.1958,0,0.1718,0.1712,0.1705,0.1566,0.1569,0.1573,0.1577,0.1607,0.1604,0.1601,0,0,0,0,0,0,0,0,0,0,0,0,0,0.2056,0.2052,0.1956,0.1958,0.1959,0.1719,0.1711,0.1703,0.1565,0.157,0.1574,0.1578,0.1608,0.1604,0.1601,0,0,0,0,0,0,0,0,0,0,0,0,0,0.189,0.2051,0.1956,0.1896,0.1892,0.1721,0.1711,0.1701,0.1564,0.157,0.1575,0.1581,0.1609,0.1605,0.1601,0.1462,0,0,0.1588,0.1586,0,0,0,0,0,0,0,0,0.19,0.1881,0.1903,0.19,0.1896,0.1719,0.176,0.1651,0.1563,0.1638,0.1577,0.1583,0.1696,0.1685,0.1556,0.1464,0.1465,0.1588,0.1585,0.1584,0.1582,0,0,0,0,0,0,0,0.1912,0.189,0.1814,0.1906,0.1901,0.1805,0.1783,0.1732,0.1606,0.1632,0.1633,0.168,0.169,0.1559,0.1558,0.1465,0.1588,0.1584,0.1582,0.158,0.1476,0.1476,0,0,0,0,0,0,0.2042,0.1901,0.1822,0.1812,0.1965,0.1802,0.1777,0.1731,0.1601,0.1598,0.1676,0.1676,0.1564,0.1562,0.1559,0.1601,0.1584,0.158,0.1577,0.1476,0.1476,0.1475,0,0,0,0,0,0,0.2043,0.2032,0.1833,0.1895,0.1869,0.1801,0.1747,0.1725,0.1675,0.1641,0.1634,0.1669,0.1568,0.1565,0.1576,0.1596,0.1578,0.1574,0.1477,0.1476,0.1476,0.1552,0,0,0,0,0,0,0.2044,0.2031,0.2019,0.19,0.1873,0.1781,0.1746,0.1718,0.1715,0.1712,0.1631,0.1633,0.1572,0.1582,0.1572,0.159,0.1571,0.1477,0.1476,0.1476,0.155,0.1555,0.1558,0,0,0,0,0,0.2046,0.1955,0.2016,0.2011,0.1861,0.1786,0.1753,0.1695,0.1712,0.1668,0.1642,0.1639,0.1572,0.1578,0.1566,0.1584,0.1477,0.1477,0.1476,0.1548,0.1554,0.1558,0,0,0,0,0,0,0.1957,0.1936,0.1998,0.1903,0.1916,0.1783,0.1789,0.1733,0.1649,0.1746,0.1626,0.1623,0.1626,0.1596,0.1605,0.155,0.1527,0.1523,0.1586,0.159,0.1594,0.1704,0.1568,0,0,0,0,0,0.1965,0.1958,0.1924,0.1912,0.1939,0.1888,0.1858,0.1866,0.181,0.1776,0.1686,0.165,0.1583,0.1596,0.1529,0.1512,0.1597,0.1516,0.152,0.1524,0.1604,0.1743,0.177,0.1473,0.1473,0.1473,0,0,0.1933,0.1967,0.1945,0.1913,0.1947,0.1856,0.1872,0.1937,0.1846,0.1811,0.1673,0.1663,0.1578,0.1535,0.1539,0.1541,0.1645,0.1523,0.1527,0.1607,0.1745,0.1776,0.1803,0.1473,0.1473,0.1473,0,0,0.1921,0.1939,0.1936,0.1908,0.2042,0.1973,0.2016,0.1942,0.192,0.1835,0.1785,0.1824,0.1648,0.1618,0.1572,0.1573,0.1647,0.1542,0.1674,0.1805,0.1834,0.186,0.199,0.2027,0.1563,0.1563,0.1563,0,0.1903,0.1906,0.1928,0.1907,0.1905,0.2016,0.1968,0.1891,0.1811,0.1861,0.1843,0.1735,0.1679,0.1666,0.1659,0.159,0.1694,0.1658,0.1821,0.1848,0.1874,0.2001,0.2042,0.1567,0.1567,0.1566,0.1566,0,0.1759,0.1863,0.1895,0.1883,0.1808,0.1884,0.181,0.1815,0.1844,0.1812,0.1885,0.1825,0.1813,0.1758,0.1699,0.1836,0.1858,0.1799,0.183,0.1911,0.2036,0.2077,0.1572,0.1571,0.157,0.1569,0,0,0.1581,0.176,0.1788,0.1869,0.1862,0.1777,0.1742,0.1753,0.1822,0.1807,0.1878,0.1799,0.1955,0.1921,0.1904,0.2017,0.2246,0.2021,0.2026,0.2191,0.2589,0.2415,0.2443,0.2246,0.2253,0.2259,0.26,0,0.1572,0.1539,0.1603,0.1611,0.1622,0.1698,0.1614,0.1637,0.1727,0.1799,0.1946,0.1992,0.1949,0.2049,0.2157,0.2222,0.2364,0.2163,0.2454,0.2464,0.2333,0.2487,0.2258,0.2527,0.264,0.2647,0.2652,0,0.1405,0.148,0.1465,0.164,0.1639,0.1578,0.1624,0.1594,0.1782,0.1904,0.2109,0.2215,0.2404,0.235,0.262,0.2515,0.2602,0.2646,0.2658,0.2521,0.2368,0.2463,0.2598,0.2721,0.2715,0.271,0.2706,0,0.1195,0.1385,0.1416,0.1409,0.1519,0.158,0.1583,0.1684,0.1779,0.2051,0.2219,0.2453,0.2607,0.2779,0.2907,0.2816,0.3212,0.3065,0.2997,0.2985,0.2861,0.2823,0.3307,0.3307,0.3306,0.3305,0.3304,0,0.1079,0.1146,0.1382,0.1357,0.1497,0.1499,0.1649,0.174,0.1948,0.2123,0.2326,0.2528,0.2739,0.2969,0.3055,0.3191,0.3348,0.3106,0.3089,0.2868,0.2828,0.3036,0.3,0.3318,0.3315,0.3313,0.3311,0,0.0871,0.1021,0.1175,0.137,0.1453,0.1503,0.1687,0.1764,0.1988,0.2236,0.2354,0.2662,0.298,0.317,0.3455,0.3348,0.3498,0.3501,0.3227,0.3167,0.3147,0.3111,0.3467,0.3464,0.3462,0.346,0.3458,0,0.0723,0.082,0.1135,0.1252,0.1414,0.1535,0.1623,0.1807,0.1921,0.2306,0.2426,0.2819,0.3076,0.3418,0.3395,0.3553,0.3619,0.3326,0.305,0.3231,0.318,0.3146,0.3113,0.2937,0.2931,0.2927,0.2923,0,0.0621,0.0827,0.0918,0.1171,0.135,0.1507,0.165,0.1766,0.201,0.2234,0.2572,0.2822,0.3127,0.318,0.3307,0.3322,0.3266,0.322,0.3608,0.2862,0.2739,0.2683,0.2669,0.2881,0.2885,0.2888,0.2891,0.2892,0.0611,0.0703,0.0907,0.1144,0.1305,0.1483,0.1625,0.1746,0.1985,0.2358,0.257,0.2833,0.2817,0.2892,0.292,0.2916,0.3036,0.2875,0.2889,0.2908,0.2716,0.2588,0.267,0.2673,0.2675,0.2678,0.2679,0,0.0641,0.0729,0.0846,0.1143,0.1271,0.1469,0.166,0.1764,0.2042,0.2275,0.2589,0.2359,0.2454,0.2563,0.2447,0.2369,0.234,0.2341,0.2301,0.2343,0.238,0.2159,0.1969,0.1967,0.1965,0.1963,0,0,0.0687,0.0804,0.0866,0.1129,0.1348,0.1654,0.1849,0.1911,0.2007,0.2115,0.2217,0.2439,0.2414,0.2088,0.207,0.206,0.2199,0.2007,0.2576,0.2574,0.2609,0.2685,0.239,0,0,0,0,0]},{"header":{"parameterUnit":"m.s-1","parameterCategory":2,"la1":30.2991,"la2":30.254,"lo1":-89.0895,"lo2":-89.0444,"dy":0.0017,"dx":0.0017,"nx":28,"ny":28,"refTime":"2023-04-28T21:00:00:Z","depth":"2","parameterNumber":3,"parameterNumberName":"V-component_of_CURRENTS"},"data":[0,0,0,0,0,0,0,0,0,0,0,0,0,0,0,0,0,0,0,0,0,0,0,0,0,0,0,0,0,0,0,0,0,0,0,0,0,0,0,0,0,0,0,0,0,0,0,0,0,0,0,0,0,0,0,0,0,0,-0.0164,-0.0165,0,-0.0248,-0.0249,-0.025,-0.0295,-0.0295,-0.0295,-0.0296,-0.0464,-0.0468,-0.0472,0,0,0,0,0,0,0,0,0,0,0,0,0,-0.0015,-0.0018,-0.0164,-0.0165,-0.0166,-0.0248,-0.0249,-0.025,-0.0295,-0.0295,-0.0295,-0.0296,-0.0462,-0.0468,-0.0473,0,0,0,0,0,0,0,0,0,0,0,0,0,-0.0088,-0.0019,-0.0164,-0.0199,-0.0203,-0.0248,-0.0249,-0.0251,-0.0295,-0.0295,-0.0296,-0.0296,-0.0461,-0.0467,-0.0473,-0.051,0,0,-0.0493,-0.0496,0,0,0,0,0,0,0,0,-0.0084,-0.0093,-0.0193,-0.0196,-0.0201,-0.0262,-0.0258,-0.0342,-0.0295,-0.026,-0.0296,-0.0296,-0.0404,-0.0415,-0.0429,-0.0518,-0.0525,-0.0494,-0.0498,-0.0501,-0.0503,0,0,0,0,0,0,0,-0.0078,-0.009,-0.0197,-0.0194,-0.0199,-0.0201,-0.0211,-0.0274,-0.0331,-0.0263,-0.0266,-0.0276,-0.0407,-0.0423,-0.0434,-0.0528,-0.0494,-0.05,-0.0504,-0.0506,-0.0633,-0.0633,0,0,0,0,0,0,-0.007,-0.0085,-0.0195,-0.02,-0.0142,-0.0203,-0.0215,-0.0242,-0.0329,-0.0342,-0.0276,-0.0278,-0.0411,-0.0426,-0.044,-0.0452,-0.0501,-0.0507,-0.0511,-0.0634,-0.0633,-0.0633,0,0,0,0,0,0,-0.0067,-0.008,-0.0191,-0.0143,-0.0158,-0.0206,-0.0235,-0.0243,-0.0255,-0.0338,-0.0352,-0.0278,-0.0412,-0.0431,-0.0484,-0.0461,-0.051,-0.0516,-0.0635,-0.0634,-0.0633,-0.0501,0,0,0,0,0,0,-0.0063,-0.0079,-0.0086,-0.0143,-0.016,-0.0205,-0.0235,-0.0245,-0.0261,-0.0264,-0.0345,-0.0361,-0.0414,-0.0473,-0.049,-0.0471,-0.0521,-0.0635,-0.0634,-0.0633,-0.0507,-0.0496,-0.0487,0,0,0,0,0,-0.0057,-0.0066,-0.0087,-0.0099,-0.0173,-0.0205,-0.0213,-0.0247,-0.0261,-0.0259,-0.0313,-0.0358,-0.0479,-0.0479,-0.0498,-0.048,-0.0636,-0.0635,-0.0633,-0.0511,-0.0498,-0.0488,0,0,0,0,0,0,-0.0,-0.0074,-0.0097,-0.0127,-0.0157,-0.0212,-0.0223,-0.0239,-0.028,-0.0301,-0.036,-0.0379,-0.041,-0.0471,-0.0468,-0.0514,-0.0562,-0.0565,-0.0462,-0.0451,-0.0442,-0.0396,-0.0526,0,0,0,0,0,0.0007,-0.0034,-0.0082,-0.0111,-0.0125,-0.0171,-0.0187,-0.0219,-0.0264,-0.0282,-0.0324,-0.0383,-0.0422,-0.0455,-0.0505,-0.0542,-0.0574,-0.0542,-0.0533,-0.0524,-0.0501,-0.0536,-0.0526,-0.0629,-0.0629,-0.0629,0,0,0.0019,-0.0029,-0.005,-0.0102,-0.0139,-0.0143,-0.0181,-0.022,-0.0209,-0.0299,-0.03,-0.0353,-0.0423,-0.0449,-0.047,-0.0498,-0.051,-0.0523,-0.0514,-0.0495,-0.0533,-0.0523,-0.0514,-0.0628,-0.0628,-0.0628,0,0,0.0016,-0.002,-0.0051,-0.0061,-0.0116,-0.0138,-0.014,-0.0187,-0.0191,-0.0221,-0.0259,-0.0289,-0.0372,-0.0389,-0.0416,-0.0389,-0.0452,-0.0416,-0.0339,-0.0373,-0.0364,-0.0357,-0.0368,-0.0363,-0.0418,-0.0418,-0.0418,0,0.0042,-0.0013,-0.0058,-0.0069,-0.0059,-0.0124,-0.0112,-0.0128,-0.0177,-0.0156,-0.0214,-0.0265,-0.0334,-0.0318,-0.0313,-0.0362,-0.0392,-0.0372,-0.0357,-0.0351,-0.0346,-0.036,-0.0356,-0.0411,-0.0412,-0.0413,-0.0413,0,0.0036,-0.0001,-0.0015,-0.0048,-0.0027,-0.005,-0.0051,-0.004,-0.0066,-0.0076,-0.0072,-0.0159,-0.0178,-0.0209,-0.0264,-0.0241,-0.0275,-0.0332,-0.0377,-0.0327,-0.0346,-0.0343,-0.0402,-0.0404,-0.0406,-0.0408,0,0,0.0064,-0.0009,-0.0007,0.0008,-0.0018,0.0016,0.0042,0.0073,0.0139,0.006,0.0139,0.0045,0.0008,-0.0024,-0.0084,-0.0126,-0.0125,-0.0213,-0.0218,-0.0206,-0.0185,-0.0242,-0.0246,-0.0187,-0.0186,-0.0186,-0.0206,0,0.0066,0.0079,0.0036,0.0082,0.0105,0.0103,0.0169,0.0206,0.0209,0.027,0.019,0.0209,0.0077,0.0075,0.0013,-0.0068,-0.0117,-0.0112,-0.0251,-0.0254,-0.0297,-0.0245,-0.0284,-0.031,-0.0205,-0.0205,-0.0205,0,0.0086,0.0092,0.013,0.0193,0.0213,0.0238,0.0388,0.0428,0.0483,0.0492,0.0476,0.0423,0.0388,0.0246,0.0113,0.0119,-0.0024,-0.0118,-0.0123,-0.0217,-0.0308,-0.035,-0.0311,-0.0202,-0.0202,-0.0203,-0.0203,0,0.0196,0.0182,0.0225,0.0243,0.029,0.0338,0.0393,0.0488,0.059,0.0633,0.0697,0.0623,0.0601,0.0428,0.0221,0.0165,0.0068,-0.0035,-0.0218,-0.0223,-0.0302,-0.0315,-0.015,-0.015,-0.015,-0.015,-0.015,0,0.0249,0.0287,0.0268,0.0307,0.0426,0.0442,0.06,0.0651,0.0758,0.0889,0.0805,0.0889,0.0635,0.0547,0.0319,0.0087,0.0137,-0.0177,-0.0228,-0.0258,-0.0267,-0.0221,-0.0229,-0.015,-0.015,-0.015,-0.015,0,0.0365,0.0316,0.0375,0.0423,0.0458,0.0561,0.0734,0.0888,0.0927,0.1093,0.1113,0.1101,0.0974,0.0734,0.048,0.0226,0.0009,-0.0102,-0.0104,-0.0157,-0.0288,-0.0289,-0.0304,-0.0306,-0.0308,-0.031,-0.0311,0,0.0433,0.0456,0.0512,0.0573,0.0571,0.0721,0.0875,0.0971,0.1128,0.1232,0.1339,0.1264,0.125,0.0896,0.0436,0.0055,0.0031,-0.023,-0.0369,-0.0253,-0.0302,-0.03,-0.0299,-0.0414,-0.0416,-0.0417,-0.0419,0,0.0583,0.0564,0.0646,0.0766,0.0875,0.106,0.1239,0.1375,0.1484,0.159,0.1702,0.1683,0.1287,0.0872,0.0333,0.0073,-0.0173,-0.028,-0.0134,-0.0375,-0.0361,-0.0407,-0.0402,-0.0433,-0.0432,-0.0431,-0.043,-0.0429,0.073,0.0819,0.0902,0.1018,0.1128,0.1336,0.1482,0.1673,0.1882,0.1969,0.1985,0.1851,0.1276,0.0523,0.0135,-0.0297,-0.0308,-0.0498,-0.0491,-0.0483,-0.0499,-0.049,-0.0586,-0.0586,-0.0585,-0.0585,-0.0585,0,0.094,0.1023,0.1172,0.1274,0.1379,0.1382,0.1689,0.186,0.2028,0.2058,0.211,0.156,0.1078,0.0521,-0.0199,-0.0606,-0.0615,-0.0659,-0.0622,-0.0608,-0.0595,-0.0614,-0.0734,-0.0734,-0.0735,-0.0735,0,0,0.1071,0.1262,0.1328,0.1478,0.1461,0.162,0.1737,0.2004,0.2115,0.2145,0.193,0.1749,0.1009,0.0446,-0.0066,-0.0392,-0.038,-0.0428,-0.0286,-0.017,-0.0151,-0.0501,-0.0516,0,0,0,0,0]}],[{"header":{"parameterUnit":"m.s-1","parameterCategory":2,"la1":30.2991,"la2":30.254,"lo1":-89.0895,"lo2":-89.0444,"dy":0.0017,"dx":0.0017,"nx":28,"ny":28,"refTime":"2023-04-28T21:00:00:Z","depth":"4","parameterNumber":2,"parameterNumberName":"U-component_of_CURRENTS"},"data":[0,0,0,0,0,0,0,0,0,0,0,0,0,0,0,0,0,0,0,0,0,0,0,0,0,0,0,0,0,0,0,0,0,0,0,0,0,0,0,0,0,0,0,0,0,0,0,0,0,0,0,0,0,0,0,0,0,0,0.0166,0.0168,0,0.0294,0.0295,0.0297,0.0379,0.0379,0.038,0.038,0.0489,0.0491,0.0494,0,0,0,0,0,0,0,0,0,0,0,0,0,0.0074,0.0074,0.0166,0.0168,0.017,0.0294,0.0295,0.0297,0.0378,0.0379,0.038,0.0381,0.0488,0.0491,0.0494,0,0,0,0,0,0,0,0,0,0,0,0,0,0.0147,0.0074,0.0166,0.0226,0.0233,0.0293,0.0295,0.0297,0.0378,0.0379,0.038,0.0381,0.0488,0.0491,0.0494,0.0497,0,0,0.0505,0.0507,0,0,0,0,0,0,0,0,0.0143,0.015,0.0216,0.0222,0.023,0.0322,0.0303,0.0364,0.0378,0.0322,0.038,0.0381,0.0432,0.044,0.046,0.0503,0.0507,0.0505,0.0507,0.0509,0.051,0,0,0,0,0,0,0,0.0138,0.0146,0.0216,0.0217,0.0226,0.0275,0.0285,0.0315,0.0369,0.0327,0.0333,0.0349,0.0436,0.0457,0.0463,0.0509,0.0505,0.0508,0.051,0.0512,0.0675,0.0677,0,0,0,0,0,0,0.0119,0.014,0.0212,0.022,0.0189,0.0275,0.0287,0.0291,0.0369,0.0382,0.0348,0.0353,0.045,0.0459,0.0468,0.0573,0.0509,0.0512,0.0514,0.0672,0.0675,0.0678,0,0,0,0,0,0,0.0116,0.0124,0.0206,0.0185,0.0199,0.0275,0.0279,0.0293,0.0379,0.0386,0.0399,0.0428,0.0451,0.0463,0.0558,0.0574,0.0514,0.0517,0.067,0.0673,0.0676,0.0722,0,0,0,0,0,0,0.0113,0.0121,0.0139,0.0183,0.02,0.0277,0.0279,0.0295,0.0384,0.0392,0.0457,0.0464,0.0453,0.0554,0.0562,0.0578,0.052,0.0667,0.0671,0.0675,0.0718,0.0727,0.0734,0,0,0,0,0,0.0109,0.012,0.0139,0.0149,0.0213,0.0279,0.0293,0.0349,0.0387,0.0431,0.0489,0.0466,0.0584,0.056,0.0569,0.0586,0.0665,0.067,0.0675,0.0714,0.0725,0.0734,0,0,0,0,0,0,0.0098,0.0131,0.0152,0.0176,0.0241,0.0294,0.0343,0.0391,0.0473,0.0503,0.0513,0.0525,0.0606,0.0606,0.0578,0.0647,0.0613,0.0621,0.064,0.065,0.0658,0.0624,0.0523,0,0,0,0,0,0.0099,0.0119,0.0168,0.0201,0.0234,0.0306,0.0351,0.04,0.0466,0.0508,0.0551,0.0594,0.0623,0.0651,0.068,0.0733,0.0719,0.0746,0.0755,0.0761,0.0742,0.0741,0.0746,0.0694,0.0694,0.0694,0,0,0.0105,0.0131,0.0144,0.0202,0.0259,0.0324,0.0338,0.0431,0.0497,0.0504,0.062,0.0639,0.065,0.0701,0.0735,0.071,0.0781,0.0768,0.0773,0.0749,0.0747,0.0751,0.0755,0.0697,0.0697,0.0696,0,0,0.0125,0.0157,0.0182,0.0236,0.0329,0.0381,0.0425,0.0515,0.0569,0.0666,0.0682,0.0725,0.0787,0.0784,0.0788,0.0867,0.0831,0.0877,0.0881,0.0882,0.0885,0.0887,0.0915,0.092,0.0871,0.0871,0.0871,0,0.0143,0.0171,0.0208,0.0258,0.0323,0.0416,0.0491,0.0552,0.0668,0.07,0.0714,0.0788,0.0812,0.0838,0.0855,0.0881,0.0881,0.0838,0.0889,0.0891,0.0892,0.0919,0.0923,0.0874,0.0873,0.0873,0.0873,0,0.0174,0.0219,0.0252,0.034,0.0419,0.0504,0.0594,0.0678,0.0754,0.0789,0.0853,0.0872,0.0889,0.0909,0.0902,0.0922,0.0922,0.0904,0.0853,0.0899,0.0927,0.093,0.0878,0.0877,0.0876,0.0875,0,0,0.0165,0.0252,0.0272,0.0337,0.0477,0.0554,0.0662,0.0764,0.0827,0.0888,0.093,0.096,0.094,0.0943,0.0937,0.0936,0.0968,0.0919,0.0917,0.0928,0.0987,0.0954,0.0955,0.095,0.095,0.095,0.1015,0,0.0196,0.0271,0.0333,0.0476,0.0535,0.0654,0.0743,0.0847,0.0912,0.0969,0.096,0.0996,0.096,0.0964,0.0952,0.0968,0.0972,0.0953,0.0955,0.0956,0.0904,0.0955,0.095,0.1018,0.1018,0.1019,0.1019,0,0.0217,0.0264,0.0372,0.0527,0.0574,0.0686,0.0855,0.0935,0.1003,0.1031,0.1024,0.1023,0.1022,0.0989,0.0991,0.0977,0.0976,0.0983,0.0985,0.0927,0.0926,0.0955,0.1025,0.1024,0.1024,0.1023,0.1023,0,0.0185,0.0316,0.041,0.0464,0.0635,0.0732,0.0838,0.0948,0.1026,0.1051,0.11,0.1063,0.1087,0.1043,0.1054,0.1016,0.1077,0.1028,0.1001,0.1,0.0986,0.0983,0.1025,0.1025,0.1025,0.1024,0.1024,0,0.0198,0.0275,0.0407,0.0462,0.0616,0.0726,0.0882,0.0955,0.1048,0.1112,0.1112,0.1117,0.1102,0.1133,0.1085,0.1068,0.1098,0.1003,0.1007,0.1014,0.1012,0.0991,0.0986,0.1027,0.1026,0.1026,0.1025,0,0.0166,0.0237,0.0345,0.052,0.0606,0.0707,0.0943,0.1019,0.1101,0.1182,0.1193,0.1208,0.1181,0.1211,0.1183,0.1146,0.1114,0.1108,0.1164,0.1171,0.1023,0.1021,0.1038,0.1037,0.1036,0.1035,0.1035,0,0.0157,0.0197,0.0384,0.0475,0.0582,0.0751,0.0874,0.1019,0.1072,0.1192,0.1196,0.1244,0.1226,0.1189,0.1166,0.1133,0.111,0.1146,0.1013,0.1019,0.1021,0.1019,0.1018,0.1034,0.1034,0.1034,0.1033,0,0.0136,0.0197,0.0292,0.0461,0.0623,0.0772,0.0925,0.0961,0.1082,0.121,0.1177,0.1171,0.117,0.1092,0.1154,0.1091,0.1135,0.1136,0.1135,0.101,0.1014,0.1017,0.1016,0.1031,0.1031,0.1032,0.1032,0,0.0129,0.0179,0.0303,0.0462,0.0636,0.0726,0.0816,0.0896,0.0982,0.1101,0.1057,0.108,0.1122,0.1069,0.1063,0.1073,0.1,0.0982,0.0986,0.0989,0.094,0.0937,0.0933,0,0,0,0,0,0.0124,0.0181,0.0308,0.0453,0.0601,0.0693,0.0838,0.0893,0.1002,0.0975,0.1028,0.0994,0.0982,0.0947,0.093,0.099,0.0993,0.0969,0.0971,0.1018,0.102,0.0965,0,0,0,0,0,0,0.0126,0.0226,0.0281,0.0412,0.0487,0.0634,0.0699,0.0761,0.0729,0.0837,0.0798,0.0951,0.09,0.0965,0.0902,0.0913,0.0905,0.1011,0.101,0.1016,0.1019,0.1021,0.0965,0,0,0,0,0]},{"header":{"parameterUnit":"m.s-1","parameterCategory":2,"la1":30.2991,"la2":30.254,"lo1":-89.0895,"lo2":-89.0444,"dy":0.0017,"dx":0.0017,"nx":28,"ny":28,"refTime":"2023-04-28T21:00:00:Z","depth":"4","parameterNumber":3,"parameterNumberName":"V-component_of_CURRENTS"},"data":[0,0,0,0,0,0,0,0,0,0,0,0,0,0,0,0,0,0,0,0,0,0,0,0,0,0,0,0,0,0,0,0,0,0,0,0,0,0,0,0,0,0,0,0,0,0,0,0,0,0,0,0,0,0,0,0,0,0,0.0589,0.059,0,0.0633,0.0633,0.0632,0.0647,0.0648,0.0649,0.0649,0.0584,0.0581,0.0579,0,0,0,0,0,0,0,0,0,0,0,0,0,0.0527,0.0527,0.0589,0.059,0.0591,0.0633,0.0633,0.0632,0.0647,0.0648,0.0649,0.065,0.0584,0.0582,0.0579,0,0,0,0,0,0,0,0,0,0,0,0,0,0.0552,0.0527,0.0588,0.0611,0.0614,0.0633,0.0633,0.0632,0.0647,0.0648,0.0649,0.065,0.0585,0.0582,0.0578,0.0536,0,0,0.0567,0.0566,0,0,0,0,0,0,0,0,0.055,0.0552,0.0606,0.0609,0.0613,0.0644,0.0588,0.0598,0.0647,0.0624,0.0649,0.065,0.0599,0.0594,0.0588,0.0532,0.053,0.0567,0.0565,0.0563,0.0562,0,0,0,0,0,0,0,0.0548,0.0551,0.0596,0.0608,0.0612,0.0623,0.0626,0.0589,0.0596,0.0626,0.063,0.065,0.0599,0.0592,0.0587,0.0529,0.0567,0.0564,0.0562,0.056,0.0402,0.04,0,0,0,0,0,0,0.056,0.0549,0.0595,0.0599,0.0594,0.0624,0.0627,0.0625,0.0599,0.0599,0.0649,0.065,0.0597,0.0591,0.0584,0.0495,0.0563,0.056,0.0558,0.0404,0.0401,0.0399,0,0,0,0,0,0,0.0558,0.0563,0.0594,0.0584,0.059,0.0625,0.0622,0.0626,0.0641,0.0619,0.0616,0.0664,0.0598,0.059,0.0562,0.0494,0.0558,0.0555,0.0406,0.0403,0.04,0.034,0,0,0,0,0,0,0.0556,0.0561,0.0584,0.0584,0.0591,0.0625,0.0622,0.0626,0.0655,0.0658,0.063,0.0624,0.0598,0.0568,0.0559,0.049,0.0552,0.0409,0.0405,0.0401,0.0344,0.0335,0.0327,0,0,0,0,0,0.0553,0.058,0.0584,0.0592,0.0614,0.0627,0.0631,0.0653,0.0655,0.0667,0.064,0.0626,0.0535,0.0564,0.0554,0.0483,0.0411,0.0406,0.0402,0.0348,0.0337,0.0327,0,0,0,0,0,0,0.0571,0.0584,0.0589,0.0621,0.0634,0.0634,0.0671,0.0662,0.0651,0.0651,0.0618,0.0609,0.055,0.0536,0.0569,0.0425,0.0463,0.0456,0.0425,0.0414,0.0406,0.0394,0.0549,0,0,0,0,0,0.0584,0.061,0.0612,0.0646,0.0658,0.0661,0.0678,0.0673,0.0661,0.066,0.0617,0.0571,0.0516,0.049,0.0446,0.0383,0.0364,0.0325,0.0316,0.0309,0.0292,0.0225,0.0209,0.0384,0.0384,0.0384,0,0,0.0609,0.0621,0.064,0.0654,0.0672,0.0675,0.0673,0.0694,0.0665,0.0649,0.0595,0.0546,0.0498,0.0417,0.0386,0.04,0.0248,0.0303,0.0297,0.0283,0.0218,0.0201,0.0186,0.0381,0.0381,0.0382,0,0,0.066,0.0674,0.0708,0.0711,0.0733,0.0714,0.0722,0.0696,0.0664,0.06,0.057,0.0494,0.0411,0.035,0.0313,0.0235,0.021,0.0208,0.0143,0.0078,0.0063,0.005,0.0004,-0.0013,0.0196,0.0195,0.0195,0,0.0703,0.0719,0.0723,0.0743,0.0746,0.073,0.0735,0.0696,0.0647,0.0583,0.0578,0.0404,0.0369,0.0257,0.0213,0.021,0.0179,0.0189,0.0067,0.0053,0.0041,-0.0003,-0.0021,0.0192,0.0192,0.0193,0.0193,0,0.0737,0.0772,0.0796,0.08,0.0793,0.0804,0.0743,0.0685,0.0617,0.0546,0.0406,0.0335,0.0223,0.0186,0.0167,0.004,0.005,0.0072,0.0096,0.0019,-0.0022,-0.0039,0.0187,0.0188,0.0189,0.019,0,0,0.0778,0.0819,0.0834,0.0836,0.0815,0.0802,0.073,0.0637,0.0554,0.0447,0.0323,0.0191,0.0121,0.0075,0.0029,-0.0042,-0.0163,-0.0038,-0.004,-0.008,-0.0305,-0.0243,-0.0256,-0.0166,-0.0169,-0.0172,-0.0297,0,0.0814,0.086,0.0856,0.0871,0.0867,0.0805,0.0726,0.0621,0.0505,0.037,0.0244,0.0125,0.0092,0.0019,-0.0066,-0.0133,-0.0213,-0.0131,-0.0229,-0.0232,-0.0164,-0.0276,-0.0183,-0.031,-0.0314,-0.0317,-0.0319,0,0.0815,0.0848,0.0887,0.0852,0.0845,0.0825,0.0668,0.0591,0.0397,0.0299,0.0145,0.0058,-0.0092,-0.009,-0.0272,-0.022,-0.0285,-0.0327,-0.0332,-0.0268,-0.0204,-0.0219,-0.0351,-0.0348,-0.0346,-0.0344,-0.0342,0,0.0783,0.0841,0.0875,0.0876,0.0844,0.0797,0.0724,0.0545,0.0464,0.0248,0.0174,-0.002,-0.0108,-0.0232,-0.0339,-0.0323,-0.0506,-0.0481,-0.0487,-0.0481,-0.0467,-0.0452,-0.0615,-0.0615,-0.0615,-0.0615,-0.0614,0,0.0771,0.0793,0.0868,0.0881,0.0854,0.0783,0.0687,0.0568,0.0412,0.0319,0.0141,0.0046,-0.015,-0.027,-0.0369,-0.0484,-0.0535,-0.0531,-0.0526,-0.0489,-0.0474,-0.048,-0.0462,-0.0619,-0.0618,-0.0617,-0.0616,0,0.0715,0.079,0.0819,0.0839,0.0851,0.0793,0.0723,0.0636,0.0481,0.0362,0.0305,0.0082,-0.0087,-0.0241,-0.0439,-0.0498,-0.0617,-0.0637,-0.059,-0.0574,-0.0546,-0.0531,-0.0687,-0.0686,-0.0685,-0.0685,-0.0684,0,0.0695,0.0719,0.0813,0.0846,0.0872,0.0821,0.079,0.0669,0.0593,0.0396,0.0347,0.0151,0.0007,-0.0243,-0.0406,-0.0599,-0.0601,-0.0673,-0.0633,-0.0583,-0.0563,-0.0548,-0.0534,-0.0683,-0.0683,-0.0683,-0.0683,0,0.0635,0.069,0.0729,0.0823,0.0855,0.0859,0.08,0.0751,0.0603,0.0553,0.0359,0.0182,-0.0002,-0.0227,-0.0371,-0.0502,-0.0642,-0.0666,-0.0668,-0.0632,-0.058,-0.0558,-0.0544,-0.068,-0.0681,-0.0681,-0.0681,0,0.0593,0.0604,0.0697,0.076,0.0829,0.0823,0.0793,0.0717,0.0644,0.0462,0.0417,0.0183,0.0054,-0.0175,-0.031,-0.0437,-0.0462,-0.0498,-0.051,-0.0514,-0.0413,-0.0319,-0.0368,0,0,0,0,0,0.0537,0.0554,0.062,0.0682,0.0758,0.081,0.0786,0.0747,0.0671,0.0564,0.0477,0.0309,0.0045,-0.0101,-0.0216,-0.0294,-0.0484,-0.0432,-0.0531,-0.0668,-0.067,-0.0575,0,0,0,0,0,0,0.0492,0.0545,0.0591,0.063,0.0676,0.0736,0.0726,0.0679,0.059,0.0513,0.0369,0.0325,0.0066,0.014,-0.0198,-0.0243,-0.0316,-0.0542,-0.0544,-0.0666,-0.0669,-0.0671,-0.0573,0,0,0,0,0]}]]